Miscellaneous Local Product
Issued by NWS Hastings, NE

Home | Current Version | Previous Version | Text Only | Print | Product List | Glossary Off
Versions: 1 2 3 4 5 6 7 8 9 10 11 12 13 14 15 16 17 18 19 20 21 22 23 24 25 26 27 28 29 30 31 32 33 34 35 36 37 38 39 40 41 42 43 44 45 46 47 48 49 50

432
AXUS43 KGID 021502
MISGRI

GID CWA HOURLY WEATHER ROUNDUP
NATIONAL WEATHER SERVICE HASTINGS NE
1000 AM CDT MON MAY 02 2016

NOTE: "FAIR" INDICATES FEW OR NO CLOUDS BELOW 12,000 FEET WITH NO
SIGNIFICANT WEATHER AND/OR OBSTRUCTIONS TO VISIBILITY.

...SOUTH CENTRAL NEBRASKA...

CITY           SKY/WX    TMP DP  RH WIND       PRES   REMARKS
GRAND ISLAND   SUNNY     53  39  59 NW8       30.18S
HASTINGS       SUNNY     52  39  61 NW9       30.17F
KEARNEY        SUNNY     48  39  71 NW8       30.19S
ORD            SUNNY     50  40  68 NW3       30.16F
YORK           SUNNY     54  41  62 N8        30.17S
AURORA         SUNNY     52  41  66 NW10      30.17F
LEXINGTON      SUNNY     47  39  73 NW6       30.19F
HOLDREGE       SUNNY     48  40  73 NW7       30.19F
HEBRON         SUNNY     54  41  60 N9        30.17S

...NEBRASKA PANHANDLE...

CITY           SKY/WX    TMP DP  RH WIND       PRES   REMARKS
CHADRON        SUNNY     50  35  56 W15       30.17F
ALLIANCE       SUNNY     43  36  76 W8        30.18F
SCOTTSBLUFF    SUNNY     44  30  57 W12       30.21F
SIDNEY         SUNNY     40  31  70 W9        30.21F WCI  34

...WESTERN AND NORTH CENTRAL NEBRASKA...

CITY           SKY/WX    TMP DP  RH WIND       PRES   REMARKS
VALENTINE      SUNNY     50  35  56 NW7       30.15F
AINSWORTH      SUNNY     53  37  55 W8        30.15F
ONEILL         SUNNY     53  39  60 W7        30.16S
BROKEN BOW     SUNNY     51  36  56 NW9       30.17F
IMPERIAL       SUNNY     45  34  65 NW10      30.21F
NORTH PLATTE   SUNNY     46  35  65 W6        30.19F
MCCOOK         SUNNY     47  37  68 SW5       30.20F

...EASTERN NEBRASKA...

CITY           SKY/WX    TMP DP  RH WIND       PRES   REMARKS
NORFOLK        SUNNY     51  40  65 NW6       30.15F
SO SIOUX CITY  SUNNY     54  43  66 NW5       30.15S
TEKAMAH        SUNNY     54  44  69 N8        30.15S
COLUMBUS       SUNNY     54  39  58 NW6       30.17S
ALBION         SUNNY     53  39  59 NW6       30.16F
OMAHA EPPLEY   MOSUNNY   53  44  71 N7        30.15S
OFFUTT AFB     SUNNY     55  44  67 NE7       30.14S
MILLARD        SUNNY     54  40  59 N3        30.15S
LINCOLN        SUNNY     57  40  52 N8        30.16F
NEBRASKA CITY  PTSUNNY   52  43  72 N8        30.14S
BEATRICE       MOSUNNY   55  41  60 N12       30.15F
FALLS CITY     CLOUDY    52  45  77 N9        30.12F

...NORTHERN KANSAS...

CITY           SKY/WX    TMP DP  RH WIND       PRES   REMARKS
GOODLAND       SUNNY     48  33  56 NW12      30.23S
HILL CITY      SUNNY     52  37  56 NW10      30.21S
NORTON         SUNNY     48  36  61 NW8       30.19F
PHILLIPSBURG   SUNNY     52  39  62 CALM      30.19F
SMITH CENTER   SUNNY     54  41  62 NW10      30.19F
BELOIT         CLOUDY    52  39  62 NW12      30.18S
HAYS           SUNNY     54  36  50 N8        30.20S
RUSSELL        SUNNY     53  41  63 NW10      30.18F
CONCORDIA      MOSUNNY   53  44  71 NW7       30.16F
SALINA         CLOUDY    53  44  71 NW12      30.17F
TOPEKA         CLOUDY    54  45  71 NW9       30.13S



USA.gov is the U.S. government's official web portal to all federal, state and local government web resources and services.